STARLINK-3764, 52280

Orbit data source: Space-Track

STARLINK-3764, 52280 is a payload satellite owned by SpaceX/Seattle (US) in LEO that was launched on Thu, 21 Apr 2022 UTC via an FALCON 9 launch vehicle from the Air Force Eastern Test Range (AFETR). Payload-class satellites include a variety of spacecraft equipped with specific instruments for various scientific and technological missions. These include communications satellites like Starlink; space stations such as the ISS; scientific satellites like the Hubble; Earth observation satellites from companies like Planet Labs, Umbra, and HawkEye 360; GPS; miniature CubeSats for education and research; and military/defense satellites.

Loading next visibility...
Identifier
52280, 2022-041V
Orbit
LEO
Country
Flag of USUS
Related business
Manufacturer
SpaceX/Seattle
Mission
Operational Commercial Communications
Bus & Motor
STARLINK, Unknown motor
Mass
297 kg wet, ~275 kg dry
Launch date (UTC)
2022-04-21 (4 years ago)
Launch vehicle
FALCON 9
Launch site
Air Force Eastern Test Range (AFETR)
Object type
Payload
Rocket body
Debris
Shape & HBR
Box + 1 Pan, 10.1 m
Radar Cross Section
11.087 m², Large (>1 m²)

Expand to show TLE details & history
Last TLE update: 2 days ago

TLE from 2 days ago
0 STARLINK-3764
1 52280U 22041V   26235.58449252  .00000140  00000-0  16273-4 0  9991
2 52280  53.1608  71.0265 0001267  93.0521 267.0626 15.31701619239680
Epoch: 2026-08-23T14:01Z
TLE epoch observation values (Epoch: 2026-08-23T14:01:40.153Z)
Latitude
0.00001°
Longitude
-111.26924°
Altitude
471.68 km
Speed
7.631 km/s
True Right ascension
04h 44m 06s
True Declination
0° 00' 00"
Sunlit
Object was in daylight at epoch
Visualization orbit readout
Latitude
Unknown
Longitude
Unknown
Altitude
Unknown
Speed
Unknown
Apparent Right ascension
Unknown
Apparent Declination
Unknown
Sunlit
N/A
Visualization observer readout
Local Sidereal Time
23:01:31
Azimuth
Unknown
Elevation
Unknown
Doppler factor
Unknown
Orbital elements
Apogee altitude
471.859 km
Perigee altitude
470.124 km
Semi-major axis
6,849.129 km
Eccentricity
0.00013
Inclination
53.1608°
RAAN
71.0265°
Arg. of periapsis
93.0521°
True anomaly
267.0481°
Mean anomaly
267.0626°
Eccentric anomaly
267.05535°
Mean motion
3.82904 °/min
Orbital period
94.02 mins
BSTAR
0.000016273
Loading maneuver chart data...
Computing Atmospheric mass density...

Documentation

Showing up to 5 results
|